Time,TemperatureF,DewpointF,PressureIn,WindDirection,WindDirectionDegrees,WindSpeedMPH,WindSpeedGustMPH,Humidity,HourlyPrecipIn,Conditions,Clouds,dailyrainin,SoftwareType,DateUTC
2013-09-13 00:11:00,56.0,55.0,29.96,WNW,292,0.0,0.0,96,0.00,,,0.00,,2013-09-13 07:11:00,
2013-09-13 00:22:00,56.0,55.0,29.96,WNW,292,0.0,0.0,96,0.00,,,0.00,,2013-09-13 07:22:00,
2013-09-13 00:42:00,56.0,55.0,29.96,WNW,292,0.0,0.0,96,0.00,,,0.00,,2013-09-13 07:42:00,
2013-09-13 00:52:00,56.0,55.0,29.96,WNW,292,0.0,0.0,97,0.00,,,0.00,,2013-09-13 07:52:00,
2013-09-13 01:11:00,56.0,55.0,29.96,West,270,0.0,0.0,98,0.00,,,0.00,,2013-09-13 08:11:00,
2013-09-13 01:22:00,57.0,56.0,29.96,WNW,288,0.0,0.0,98,0.00,,,0.00,,2013-09-13 08:22:00,
2013-09-13 01:41:00,57.0,56.0,29.96,WNW,283,0.0,0.0,98,0.00,,,0.00,,2013-09-13 08:41:00,
2013-09-13 01:52:00,57.0,56.0,29.96,ENE,72,0.0,1.0,98,0.00,,,0.00,,2013-09-13 08:52:00,
2013-09-13 02:11:00,57.0,56.0,29.97,WSW,240,0.0,0.0,98,0.00,,,0.00,,2013-09-13 09:11:00,
2013-09-13 02:21:00,57.0,56.0,29.97,WNW,299,0.0,0.0,98,0.00,,,0.00,,2013-09-13 09:21:00,
2013-09-13 02:43:00,57.0,56.0,29.97,WNW,283,0.0,0.0,98,0.00,,,0.00,,2013-09-13 09:43:00,
2013-09-13 02:54:00,57.0,56.0,29.97,West,279,0.0,0.0,98,0.00,,,0.00,,2013-09-13 09:54:00,
2013-09-13 03:12:00,57.0,56.0,29.98,WNW,282,0.0,0.0,97,0.00,,,0.00,,2013-09-13 10:12:00,
2013-09-13 03:23:00,57.0,56.0,29.98,West,280,0.0,0.0,97,0.00,,,0.00,,2013-09-13 10:23:00,
2013-09-13 03:42:00,57.0,56.0,29.98,WNW,299,0.0,2.0,97,0.00,,,0.00,,2013-09-13 10:42:00,
2013-09-13 03:53:00,57.0,56.0,29.98,NW,307,0.0,2.0,97,0.00,,,0.00,,2013-09-13 10:53:00,
2013-09-13 04:12:00,57.0,56.0,29.98,NNW,338,0.0,0.0,97,0.00,,,0.00,,2013-09-13 11:12:00,
2013-09-13 04:22:00,57.0,56.0,29.98,NNE,30,0.0,0.0,97,0.00,,,0.00,,2013-09-13 11:22:00,
2013-09-13 04:42:00,57.0,56.0,29.98,WSW,258,0.0,0.0,97,0.00,,,0.00,,2013-09-13 11:42:00,
2013-09-13 04:52:00,57.0,56.0,29.98,WSW,257,0.0,0.0,97,0.00,,,0.00,,2013-09-13 11:52:00,
2013-09-13 05:11:00,57.0,56.0,29.97,WSW,257,0.0,0.0,97,0.00,,,0.00,,2013-09-13 12:11:00,
2013-09-13 05:21:00,57.0,56.0,29.97,WSW,257,0.0,0.0,97,0.00,,,0.00,,2013-09-13 12:21:00,
2013-09-13 05:41:00,57.0,56.0,29.97,WSW,257,0.0,0.0,96,0.00,,,0.00,,2013-09-13 12:41:00,
2013-09-13 05:52:00,57.0,56.0,29.97,WNW,300,0.0,0.0,96,0.00,,,0.00,,2013-09-13 12:52:00,
2013-09-13 06:11:00,57.0,56.0,29.97,WNW,300,0.0,0.0,96,0.00,,,0.00,,2013-09-13 13:11:00,
2013-09-13 06:21:00,57.0,56.0,29.97,WNW,300,0.0,0.0,97,0.00,,,0.00,,2013-09-13 13:21:00,
2013-09-13 06:52:00,57.0,56.0,29.97,West,276,0.0,0.0,97,0.00,,,0.00,,2013-09-13 13:52:00,
2013-09-13 07:11:00,57.0,56.0,29.97,NW,321,0.0,0.0,97,0.00,,,0.00,,2013-09-13 14:11:00,
2013-09-13 07:21:00,57.0,56.0,29.97,NW,320,0.0,0.0,97,0.00,,,0.00,,2013-09-13 14:21:00,
2013-09-13 07:42:00,57.0,56.0,29.97,NW,320,0.0,0.0,97,0.00,,,0.00,,2013-09-13 14:42:00,
2013-09-13 07:52:00,57.0,56.0,29.97,WNW,283,0.0,0.0,97,0.00,,,0.00,,2013-09-13 14:52:00,
2013-09-13 08:11:00,57.0,56.0,29.97,WNW,283,0.0,0.0,98,0.00,,,0.00,,2013-09-13 15:11:00,
2013-09-13 08:22:00,58.0,57.0,29.97,WNW,285,0.0,0.0,97,0.00,,,0.00,,2013-09-13 15:22:00,
2013-09-13 08:43:00,58.0,57.0,29.97,NW,314,0.0,0.0,97,0.00,,,0.00,,2013-09-13 15:43:00,
2013-09-13 08:53:00,58.0,57.0,29.97,NW,307,0.0,0.0,97,0.00,,,0.00,,2013-09-13 15:53:00,
2013-09-13 09:12:00,58.0,57.0,29.97,WNW,290,0.0,0.0,97,0.00,,,0.00,,2013-09-13 16:12:00,
2013-09-13 09:24:00,58.0,57.0,29.97,WNW,291,0.0,0.0,96,0.00,,,0.00,,2013-09-13 16:24:00,
2013-09-13 09:43:00,59.0,57.0,29.97,NW,306,0.0,0.0,94,0.00,,,0.00,,2013-09-13 16:43:00,
2013-09-13 09:54:00,60.0,58.0,29.97,WNW,294,0.0,0.0,94,0.00,,,0.00,,2013-09-13 16:54:00,
2013-09-13 10:13:00,60.0,58.0,29.97,WNW,294,0.0,0.0,92,0.00,,,0.00,,2013-09-13 17:13:00,
2013-09-13 10:23:00,60.0,58.0,29.97,WNW,285,0.0,0.0,93,0.00,,,0.00,,2013-09-13 17:23:00,
2013-09-13 10:43:00,60.0,57.0,29.97,SW,225,0.0,0.0,91,0.00,,,0.00,,2013-09-13 17:43:00,
2013-09-13 10:53:00,60.0,57.0,29.97,WNW,289,0.0,0.0,91,0.00,,,0.00,,2013-09-13 17:53:00,
2013-09-13 11:12:00,60.0,58.0,29.97,WNW,289,0.0,0.0,92,0.00,,,0.00,,2013-09-13 18:12:00,
2013-09-13 11:22:00,61.0,58.0,29.97,WNW,289,0.0,0.0,90,0.00,,,0.00,,2013-09-13 18:22:00,
2013-09-13 11:42:00,61.0,58.0,29.96,NW,316,0.0,0.0,91,0.00,,,0.00,,2013-09-13 18:42:00,
2013-09-13 11:52:00,61.0,58.0,29.96,NW,304,0.0,0.0,91,0.00,,,0.00,,2013-09-13 18:52:00,
2013-09-13 12:11:00,61.0,58.0,29.96,NNW,329,0.0,0.0,91,0.00,,,0.00,,2013-09-13 19:11:00,
2013-09-13 12:22:00,61.0,58.0,29.96,NW,316,0.0,3.0,90,0.00,,,0.00,,2013-09-13 19:22:00,
2013-09-13 12:42:00,62.0,59.0,29.95,NW,324,0.0,0.0,89,0.00,,,0.00,,2013-09-13 19:42:00,
2013-09-13 12:52:00,62.0,59.0,29.95,WNW,295,0.0,2.0,89,0.00,,,0.00,,2013-09-13 19:52:00,
2013-09-13 13:11:00,62.0,58.0,29.94,West,279,0.0,2.0,88,0.00,,,0.00,,2013-09-13 20:11:00,
2013-09-13 13:21:00,63.0,59.0,29.94,West,270,0.0,2.0,88,0.00,,,0.00,,2013-09-13 20:21:00,
2013-09-13 13:32:00,63.0,59.0,29.94,West,270,0.0,2.0,88,0.00,,,0.00,,2013-09-13 20:32:00,
2013-09-13 13:52:00,64.0,59.0,29.93,SSE,151,0.0,2.0,85,0.00,,,0.00,,2013-09-13 20:52:00,
2013-09-13 14:11:00,64.0,59.0,29.93,NE,49,0.0,2.0,85,0.00,,,0.00,,2013-09-13 21:11:00,
2013-09-13 14:21:00,65.0,60.0,29.93,WNW,285,0.0,0.0,83,0.00,,,0.00,,2013-09-13 21:21:00,
2013-09-13 14:54:00,66.0,61.0,29.93,NE,51,0.0,2.0,83,0.00,,,0.00,,2013-09-13 21:54:00,
2013-09-13 15:13:00,66.0,61.0,29.92,West,280,0.0,4.0,83,0.00,,,0.00,,2013-09-13 22:13:00,
2013-09-13 15:24:00,67.0,61.0,29.92,NNW,333,0.0,4.0,82,0.00,,,0.00,,2013-09-13 22:24:00,
2013-09-13 15:43:00,67.0,61.0,29.91,East,94,0.0,3.0,80,0.00,,,0.00,,2013-09-13 22:43:00,
2013-09-13 15:53:00,69.0,61.0,29.91,ENE,68,0.0,4.0,77,0.00,,,0.00,,2013-09-13 22:53:00,
2013-09-13 16:12:00,69.0,61.0,29.91,WNW,300,1.0,5.0,76,0.00,,,0.00,,2013-09-13 23:12:00,
2013-09-13 16:22:00,69.0,61.0,29.90,WNW,292,0.0,4.0,77,0.00,,,0.00,,2013-09-13 23:22:00,
2013-09-13 16:52:00,68.0,61.0,29.90,WNW,293,0.0,2.0,79,0.00,,,0.00,,2013-09-13 23:52:00,
2013-09-13 17:11:00,68.0,62.0,29.89,WNW,288,0.0,4.0,80,0.00,,,0.00,,2013-09-14 00:11:00,
2013-09-13 17:22:00,69.0,62.0,29.89,NW,307,1.0,8.0,78,0.00,,,0.00,,2013-09-14 00:22:00,
2013-09-13 17:42:00,68.0,62.0,29.89,NW,306,2.0,7.0,80,0.00,,,0.00,,2013-09-14 00:42:00,
2013-09-13 17:52:00,68.0,62.0,29.88,West,278,0.0,3.0,81,0.00,,,0.00,,2013-09-14 00:52:00,
2013-09-13 18:11:00,67.0,62.0,29.88,WNW,288,1.0,7.0,83,0.00,,,0.00,,2013-09-14 01:11:00,
2013-09-13 18:21:00,66.0,61.0,29.88,NW,305,0.0,5.0,84,0.00,,,0.00,,2013-09-14 01:21:00,
2013-09-13 18:42:00,65.0,60.0,29.88,West,281,1.0,4.0,85,0.00,,,0.00,,2013-09-14 01:42:00,
2013-09-13 18:52:00,65.0,61.0,29.88,NW,304,1.0,4.0,86,0.00,,,0.00,,2013-09-14 01:52:00,
2013-09-13 19:12:00,64.0,60.0,29.88,WNW,298,1.0,4.0,88,0.00,,,0.00,,2013-09-14 02:12:00,
2013-09-13 19:22:00,63.0,60.0,29.88,WNW,289,0.0,3.0,89,0.00,,,0.00,,2013-09-14 02:22:00,
2013-09-13 19:42:00,63.0,60.0,29.87,West,275,0.0,3.0,89,0.00,,,0.00,,2013-09-14 02:42:00,
2013-09-13 19:52:00,63.0,60.0,29.88,West,262,0.0,4.0,90,0.00,,,0.00,,2013-09-14 02:52:00,
2013-09-13 20:11:00,63.0,60.0,29.88,West,272,0.0,0.0,91,0.00,,,0.00,,2013-09-14 03:11:00,
2013-09-13 20:22:00,62.0,59.0,29.88,WNW,291,0.0,3.0,91,0.00,,,0.00,,2013-09-14 03:22:00,
2013-09-13 20:54:00,62.0,60.0,29.88,WNW,290,1.0,3.0,92,0.00,,,0.00,,2013-09-14 03:54:00,
2013-09-13 21:14:00,62.0,60.0,29.88,West,262,0.0,4.0,93,0.00,,,0.00,,2013-09-14 04:14:00,
2013-09-13 21:24:00,61.0,59.0,29.89,WNW,283,0.0,3.0,93,0.00,,,0.00,,2013-09-14 04:24:00,
2013-09-13 21:43:00,61.0,59.0,29.89,East,96,0.0,0.0,94,0.00,,,0.00,,2013-09-14 04:43:00,
2013-09-13 21:54:00,61.0,59.0,29.89,West,269,0.0,2.0,94,0.00,,,0.00,,2013-09-14 04:54:00,
2013-09-13 22:12:00,61.0,60.0,29.89,NNW,345,0.0,0.0,95,0.00,,,0.00,,2013-09-14 05:12:00,
2013-09-13 22:22:00,60.0,59.0,29.89,West,262,0.0,0.0,95,0.00,,,0.00,,2013-09-14 05:22:00,
2013-09-13 22:43:00,60.0,59.0,29.89,SW,231,0.0,2.0,95,0.00,,,0.00,,2013-09-14 05:43:00,
2013-09-13 22:52:00,60.0,59.0,29.89,WNW,283,0.0,0.0,95,0.00,,,0.00,,2013-09-14 05:52:00,
2013-09-13 23:12:00,60.0,59.0,29.89,WNW,286,0.0,0.0,95,0.00,,,0.00,,2013-09-14 06:12:00,
2013-09-13 23:21:00,60.0,59.0,29.88,WNW,297,0.0,0.0,96,0.00,,,0.00,,2013-09-14 06:21:00,
2013-09-13 23:42:00,60.0,59.0,29.88,NW,307,0.0,0.0,96,0.00,,,0.00,,2013-09-14 06:42:00,
2013-09-13 23:52:00,60.0,59.0,29.88,WNW,287,0.0,0.0,96,0.00,,,0.00,,2013-09-14 06:52:00,